When you browse on this site, cookies collect data to enhance your experience and personalize the content and advertising you see.
Visit our Privacy Policy to learn more. By continuing to use the site, you agree to this use of cookies and data.
  • In Hungary
  • List of Countries
  • For 7 days
  • Water Temperature
  • Satellite Maps
  • Weather Map
  • News
  • Weather Widgets
  • user-avatar
    Login

    Hourly Weather Lewin Klodzki

    Today, 20 June, Thursday

    Time Temperature Precipitation Wind Pressure Humidity
    00:00 +18°C° 0.1 mm 1 mps 714 mmHg 89%
    01:00 +18°C° 0 mm 1 mps 714 mmHg 89%
    02:00 +16°C° 0 mm 1 mps 714 mmHg 90%
    03:00 +16°C° 0 mm 1 mps 713 mmHg 91%
    04:00 +16°C° 0 mm 1 mps 713 mmHg 91%
    05:00 +17°C° 0 mm 2 mps 714 mmHg 88%
    06:00 +19°C° 0 mm 2 mps 714 mmHg 86%
    07:00 +20°C° 0 mm 2 mps 714 mmHg 83%
    08:00 +21°C° 0.1 mm 2 mps 715 mmHg 77%
    09:00 +24°C° 0.1 mm 2 mps 715 mmHg 71%
    10:00 +25°C° 0.1 mm 2 mps 715 mmHg 65%
    11:00 +26°C° 0.2 mm 2 mps 715 mmHg 61%
    12:00 +27°C° 0.2 mm 2 mps 715 mmHg 58%
    13:00 +28°C° 0.2 mm 2 mps 715 mmHg 54%
    14:00 +27°C° 0.6 mm 2 mps 715 mmHg 59%
    15:00 +26°C° 0.6 mm 2 mps 714 mmHg 63%
    16:00 +26°C° 0.6 mm 2 mps 714 mmHg 68%
    17:00 +24°C° 0.5 mm 2 mps 714 mmHg 73%
    18:00 +23°C° 0.5 mm 1 mps 714 mmHg 78%
    19:00 +19°C° 0.5 mm 0 mps 715 mmHg 83%
    20:00 +20°C° 0.8 mm 1 mps 715 mmHg 85%
    21:00 +20°C° 0.8 mm 1 mps 715 mmHg 88%
    22:00 +19°C° 0.8 mm 1 mps 715 mmHg 90%
    23:00 +18°C° 0.4 mm 1 mps 715 mmHg 91%

    Tomorrow, 21 June, Friday

    Time Temperature Precipitation Wind Pressure Humidity
    00:00 +18°C° 0.4 mm 1 mps 716 mmHg 92%
    01:00 +16°C° 0.4 mm 0 mps 716 mmHg 93%
    02:00 +16°C° 0.1 mm 0 mps 716 mmHg 93%
    03:00 +15°C° 0.1 mm 0 mps 716 mmHg 94%
    04:00 +15°C° 0.1 mm 0 mps 716 mmHg 94%
    05:00 +18°C° 0 mm 1 mps 716 mmHg 93%
    06:00 +19°C° 0 mm 1 mps 717 mmHg 91%
    07:00 +19°C° 0 mm 1 mps 717 mmHg 90%
    08:00 +20°C° 0.8 mm 1 mps 717 mmHg 87%
    09:00 +21°C° 0.8 mm 1 mps 718 mmHg 83%
    10:00 +22°C° 0.8 mm 1 mps 718 mmHg 79%
    11:00 +23°C° 1.2 mm 1 mps 718 mmHg 77%
    12:00 +23°C° 1.2 mm 2 mps 718 mmHg 74%
    13:00 +24°C° 1.2 mm 2 mps 718 mmHg 72%
    14:00 +24°C° 0.8 mm 2 mps 718 mmHg 74%
    15:00 +23°C° 0.8 mm 2 mps 718 mmHg 76%
    16:00 +23°C° 0.8 mm 2 mps 718 mmHg 79%
    17:00 +21°C° 0.4 mm 2 mps 718 mmHg 82%
    18:00 +20°C° 0.4 mm 2 mps 718 mmHg 86%
    19:00 +20°C° 0.4 mm 2 mps 718 mmHg 90%
    20:00 +18°C° 0 mm 2 mps 718 mmHg 91%
    21:00 +17°C° 0 mm 2 mps 718 mmHg 93%
    22:00 +16°C° 0 mm 2 mps 719 mmHg 94%
    23:00 +16°C° 0 mm 2 mps 719 mmHg 95%

    Day after tomorrow, 22 June, Saturday

    Time Temperature Precipitation Wind Pressure Humidity
    00:00 +15°C° 0 mm 2 mps 719 mmHg 95%
    01:00 +15°C° 0 mm 2 mps 719 mmHg 95%
    02:00 +15°C° 0 mm 2 mps 719 mmHg 96%
    03:00 +14°C° 0 mm 3 mps 719 mmHg 96%
    04:00 +14°C° 0 mm 3 mps 719 mmHg 97%
    05:00 +14°C° 0 mm 3 mps 720 mmHg 95%
    06:00 +15°C° 0 mm 4 mps 720 mmHg 94%
    07:00 +15°C° 0 mm 4 mps 720 mmHg 92%
    08:00 +15°C° 0 mm 4 mps 720 mmHg 91%
    09:00 +16°C° 0 mm 5 mps 720 mmHg 89%
    10:00 +16°C° 0 mm 5 mps 720 mmHg 88%
    11:00 +17°C° 0 mm 5 mps 720 mmHg 84%
    12:00 +19°C° 0 mm 5 mps 720 mmHg 81%
    13:00 +20°C° 0 mm 5 mps 720 mmHg 77%
    14:00 +20°C° 0.1 mm 6 mps 719 mmHg 77%
    15:00 +20°C° 0.1 mm 6 mps 719 mmHg 77%
    16:00 +20°C° 0.1 mm 6 mps 719 mmHg 76%
    17:00 +19°C° 0.1 mm 6 mps 719 mmHg 78%
    18:00 +19°C° 0.1 mm 6 mps 719 mmHg 80%
    19:00 +17°C° 0.1 mm 6 mps 719 mmHg 83%
    20:00 +17°C° 0 mm 6 mps 719 mmHg 84%
    21:00 +16°C° 0 mm 6 mps 719 mmHg 85%
    22:00 +16°C° 0 mm 6 mps 719 mmHg 86%
    23:00 +15°C° 0.1 mm 5 mps 719 mmHg 88%

    23 June, Sunday

    Time Temperature Precipitation Wind Pressure Humidity
    00:00 +15°C° 0.1 mm 5 mps 719 mmHg 90%
    01:00 +15°C° 0.1 mm 5 mps 719 mmHg 92%
    02:00 +14°C° 0.1 mm 4 mps 719 mmHg 92%
    03:00 +14°C° 0.1 mm 4 mps 719 mmHg 92%
    04:00 +13°C° 0.1 mm 4 mps 719 mmHg 92%
    05:00 +13°C° 0.2 mm 4 mps 720 mmHg 92%
    06:00 +13°C° 0.2 mm 4 mps 720 mmHg 92%
    07:00 +13°C° 0.2 mm 4 mps 720 mmHg 92%
    08:00 +13°C° 0.1 mm 3 mps 720 mmHg 91%
    09:00 +13°C° 0.1 mm 3 mps 720 mmHg 89%
    10:00 +13°C° 0.1 mm 3 mps 721 mmHg 88%
    11:00 +14°C° 0 mm 4 mps 721 mmHg 81%
    12:00 +15°C° 0 mm 4 mps 721 mmHg 74%
    13:00 +17°C° 0 mm 5 mps 721 mmHg 68%
    14:00 +19°C° 0 mm 5 mps 721 mmHg 67%
    15:00 +19°C° 0 mm 5 mps 721 mmHg 66%
    16:00 +20°C° 0 mm 5 mps 721 mmHg 65%
    17:00 +19°C° 0 mm 5 mps 721 mmHg 70%
    18:00 +19°C° 0 mm 4 mps 722 mmHg 75%
    19:00 +18°C° 0 mm 4 mps 722 mmHg 80%
    20:00 +17°C° 0 mm 4 mps 722 mmHg 83%
    21:00 +14°C° 0 mm 3 mps 722 mmHg 86%
    22:00 +13°C° 0 mm 3 mps 722 mmHg 89%
    23:00 +13°C° 0 mm 3 mps 722 mmHg 91%

    24 June, Monday

    Time Temperature Precipitation Wind Pressure Humidity
    00:00 +13°C° 0 mm 2 mps 722 mmHg 93%
    01:00 +12°C° 0 mm 2 mps 722 mmHg 95%
    02:00 +12°C° 0 mm 2 mps 722 mmHg 95%
    03:00 +12°C° 0 mm 2 mps 722 mmHg 95%
    04:00 +12°C° 0 mm 2 mps 722 mmHg 96%
    05:00 +13°C° 0 mm 2 mps 723 mmHg 91%
    06:00 +15°C° 0 mm 2 mps 723 mmHg 86%
    07:00 +17°C° 0 mm 2 mps 724 mmHg 82%
    08:00 +18°C° 0 mm 3 mps 724 mmHg 77%
    09:00 +19°C° 0 mm 3 mps 724 mmHg 72%
    10:00 +20°C° 0 mm 3 mps 724 mmHg 67%
    11:00 +21°C° 0 mm 3 mps 724 mmHg 67%
    12:00 +22°C° 0 mm 4 mps 724 mmHg 67%
    13:00 +22°C° 0 mm 4 mps 724 mmHg 67%
    14:00 +23°C° 0 mm 4 mps 724 mmHg 67%
    15:00 +23°C° 0 mm 4 mps 724 mmHg 68%
    16:00 +23°C° 0 mm 4 mps 724 mmHg 69%
    17:00 +22°C° 0 mm 3 mps 724 mmHg 73%
    18:00 +21°C° 0 mm 3 mps 724 mmHg 77%
    19:00 +20°C° 0 mm 3 mps 724 mmHg 82%
    20:00 +19°C° 0 mm 2 mps 724 mmHg 85%
    21:00 +17°C° 0 mm 2 mps 724 mmHg 88%
    22:00 +16°C° 0 mm 2 mps 724 mmHg 91%
    23:00 +16°C° 0 mm 2 mps 724 mmHg 92%

    25 June, Tuesday

    Time Temperature Precipitation Wind Pressure Humidity
    00:00 +15°C° 0 mm 2 mps 724 mmHg 92%
    01:00 +15°C° 0 mm 1 mps 724 mmHg 93%
    02:00 +14°C° 0 mm 1 mps 724 mmHg 93%
    03:00 +14°C° 0 mm 1 mps 724 mmHg 93%
    04:00 +14°C° 0 mm 1 mps 724 mmHg 93%
    05:00 +15°C° 0 mm 1 mps 724 mmHg 88%
    06:00 +17°C° 0 mm 2 mps 725 mmHg 82%
    07:00 +19°C° 0 mm 2 mps 725 mmHg 77%
    08:00 +20°C° 0 mm 2 mps 725 mmHg 72%
    09:00 +21°C° 0 mm 3 mps 726 mmHg 67%
    10:00 +22°C° 0 mm 3 mps 726 mmHg 63%
    11:00 +23°C° 0 mm 4 mps 726 mmHg 61%
    12:00 +25°C° 0 mm 4 mps 726 mmHg 60%
    13:00 +25°C° 0 mm 4 mps 726 mmHg 59%
    14:00 +25°C° 0 mm 4 mps 726 mmHg 59%
    15:00 +25°C° 0 mm 4 mps 725 mmHg 59%
    16:00 +25°C° 0 mm 4 mps 725 mmHg 60%
    17:00 +23°C° 0 mm 4 mps 725 mmHg 65%
    18:00 +22°C° 0 mm 3 mps 725 mmHg 70%
    19:00 +21°C° 0 mm 3 mps 725 mmHg 75%
    20:00 +19°C° 0 mm 2 mps 725 mmHg 77%
    21:00 +18°C° 0 mm 2 mps 725 mmHg 80%
    22:00 +16°C° 0 mm 2 mps 726 mmHg 82%
    23:00 +16°C° 0 mm 2 mps 725 mmHg 83%
    Show more